Regional Weather Roundup
Issued by NWS Albany, NY

Home | Current Version | Previous Version | Graphics & Text | Print | Product List | Glossary On
Versions: 1 2 3 4 5 6 7 8 9 10 11 12 13 14 15 16 17 18 19 20 21 22 23 24 25 26 27 28 29 30 31 32 33 34 35 36 37 38 39 40 41 42 43 44 45 46 47 48 49 50
000
ASUS41 KALY 011310
RWRALY

NEW YORK STATE HOURLY WEATHER ROUNDUP
NATIONAL WEATHER SERVICE ALBANY NY
900 AM EDT FRI AUG 01 2014

NOTE: "FAIR" INDICATES FEW OR NO CLOUDS BELOW 12,000 FEET WITH NO
SIGNIFICANT WEATHER AND/OR NO OBSTRUCTIONS TO VISIBILITY.

NYZ032-033-038>043-046>054-057>066-NYZ062>081-011400-
EAST


CITY           SKY/WX    TMP DP  RH WIND       PRES   REMARKS
ALBANY         PTSUNNY   69  63  81 S8        30.20R
GLENS FALLS    MOSUNNY   64  62  93 S3        30.19S
POUGHKEEPSIE   MOSUNNY   73  66  78 CALM      30.19S
NEWBURGH       SUNNY     72  66  83 CALM      30.22S
MONTGOMERY     MOSUNNY   70  62  76 CALM      30.20S
WHITE PLAINS   SUNNY     74  67  78 NW6       30.20S
ISLIP          PTSUNNY   79  67  66 SW6       30.19S
NEW YORK CITY  PTSUNNY   77  66  68 NW5       30.18S
CENTRAL PARK   SUNNY     75  66  73 CALM      30.22R
$$

NYZ005>009-017-018-044>046-055-056-011400-
CENTRAL


CITY           SKY/WX    TMP DP  RH WIND       PRES   REMARKS
FULTON         CLOUDY    65  60  84 VRB5      30.15S
SYRACUSE       PTSUNNY   68  61  78 N5        30.16R
ROME           MOSUNNY   66  61  84 SE5       30.18S
ELMIRA         MOSUNNY   61  59  94 CALM      30.18F FOG
BINGHAMTON     SUNNY     67  60  78 S6        30.21R
MONTICELLO     PTSUNNY   64  63  94 CALM      30.24R
$$

NYZ026>034-041>043-011400-
NORTH


CITY           SKY/WX    TMP DP  RH WIND       PRES   REMARKS
WATERTOWN      PTSUNNY   68  57  68 S8        30.14R
FORT DRUM      NOT AVBL
MASSENA        PTSUNNY   64  59  83 SW5       30.13R
SARANAC LAKE   MOSUNNY   63  57  81 VRB5      30.18R
PLATTSBURGH    SUNNY     65  58  78 CALM      30.16R
$$

NYZ001>004-010>016-019>021-011400-
WEST


CITY           SKY/WX    TMP DP  RH WIND       PRES   REMARKS
NIAGARA FALLS  MOSUNNY   69  63  81 SW8       30.12R
BUFFALO        MOSUNNY   69  60  73 S8        30.13R
DUNKIRK        SUNNY     70  59  68 S10G21    30.14R
JAMESTOWN      MOSUNNY   63  59  88 S6        30.19R
WELLSVILLE     SUNNY     67  58  72 SW8       30.22S
ROCHESTER      SUNNY     67  60  78 SW9       30.14R
PENN YAN       SUNNY     68  61  78 SW9       30.17S
$$

             KEY
       WCI = WIND CHILL INDEX
       VSB = VISIBILITY
       HX  = HEAT INDEX
$$


USA.gov is the U.S. government's official web portal to all federal, state and local government web resources and services.